Temperature
16 17 17 18 18 18 19 19 19 19 20 20 20 20 20 20 19 19 19 19 19 19 19 19 19 18 18 18 18 18 18 18 18 18 18 18 18 18 18 18 17 17 17
15 16 16 17 17 18 18 18 18 19 19 19 19 19 20 20 20 19 19 19 19 19 19 19 19 18 18 18 18 18 18 18 18 17 17 17 17 18 18 18 17 17 17
13 15 15 16 16 17 17 17 17 18 19 19 19 19 19 19 19 19 19 19 18 18 18 18 18 18 18 18 18 18 18 18 17 17 17 17 17 17 18 18 17 17 17
13 14 14 15 15 15 16 16 17 17 18 18 19 19 19 19 19 19 19 19 18 18 18 18 18 18 18 18 18 17 17 17 17 17 17 17 16 16 17 17 17 17 17
12 13 13 14 14 15 15 15 16 16 16 17 18 18 18 19 19 19 18 18 18 18 18 17 17 17 17 17 17 17 17 17 17 16 16 16 16 16 16 16 17 17 17
12 12 13 13 14 14 14 14 15 15 16 16 16 17 18 18 18 18 18 18 17 17 17 17 17 17 17 17 17 17 17 17 16 16 16 16 16 16 16 16 16 16 17
11 12 12 13 13 13 13 13 14 14 15 15 16 16 16 17 17 17 17 17 17 17 16 16 16 16 16 16 16 16 16 16 16 16 16 16 16 15 15 15 15 16 16
11 11 12 12 12 13 13 13 13 13 14 14 15 15 15 16 16 16 16 16 16 16 16 15 15 15 15 15 15 15 15 15 15 15 15 15 15 15 15 15 15 15 15
11 11 12 12 12 12 12 13 13 13 13 14 14 14 14 15 15 15 15 15 15 15 15 15 15 15 14 15 15 15 15 15 15 15 15 15 15 15 15 15 15 14 14
11 11 11 12 12 12 12 12 13 13 13 13 13 13 13 14 14 14 14 14 14 14 14 14 14 14 14 14 14 15 15 15 15 15 15 15 15 15 15 15 14 14 14
11 11 12 12 12 12 12 12 12 13 13 13 13 13 13 13 13 13 13 13 13 13 13 13 14 14 14 14 14 14 15 15 15 15 15 15 15 15 14 14 14 14 14
12 12 12 12 12 12 12 12 12 12 12 13 13 13 13 13 13 13 13 13 13 13 13 13 13 14 14 14 14 14 15 15 15 15 15 15 15 15 14 14 14 14 14
13 13 13 13 12 12 12 12 12 12 12 12 13 13 13 13 13 13 13 13 13 13 13 13 14 14 14 14 14 14 15 15 15 15 15 15 15 15 15 14 14 14 14
13 13 13 13 13 12 12 12 12 12 12 12 12 13 13 13 13 13 13 13 13 13 14 14 14 14 14 14 14 15 15 15 15 15 15 15 15 15 15 15 14 14 14
14 14 14 13 13 13 12 12 12 12 12 12 12 12 12 12 13 13 13 13 13 13 14 14 14 14 14 14 14 14 15 15 15 15 15 15 15 15 15 15 14 14 14
14 14 14 14 13 13 12 12 12 12 12 12 12 12 12 12 12 12 12 12 13 13 13 13 13 13 13 14 14 14 14 14 15 15 15 15 15 15 15 14 14 14 14
15 15 14 14 14 13 13 12 12 12 12 12 12 12 12 12 12 12 12 12 12 12 12 12 12 13 13 13 13 14 14 14 14 14 14 14 14 14 14 14 14 14 14
15 15 15 14 14 14 13 13 12 12 12 12 12 12 12 12 12 12 11 11 11 11 11 11 12 12 12 13 13 13 13 14 14 14 14 14 14 14 14 14 14 14 14
15 15 15 14 14 14 13 13 13 12 12 12 12 12 12 12 12 11 11 11 11 11 11 11 11 11 12 12 12 13 13 13 13 13 13 14 14 14 14 14 14 14 14
15 15 15 15 14 14 14 13 13 12 12 12 12 11 11 11 11 11 11 10 10 10 11 11 11 11 11 11 12 12 12 12 13 13 13 13 13 13 14 14 14 14 14
15 15 15 15 15 14 14 14 13 13 12 12 12 11 11 11 11 11 11 10 10 10 10 10 10 11 11 11 11 11 11 12 12 12 12 12 13 13 13 13 14 14 13
15 15 15 15 15 14 14 14 13 13 12 12 12 12 11 11 11 11 11 10 10 11 10 10 10 10 10 10 10 10 11 11 11 12 12 12 12 13 13 13 13 13 13
15 15 15 15 15 15 14 14 14 13 13 12 12 12 11 11 11 11 11 11 11 11 10 10 10 10 10 10 10 10 10 11 11 11 11 11 12 12 12 12 13 13 13
15 15 15 15 15 15 14 14 14 13 13 13 12 12 11 11 11 11 11 11 11 10 10 10 9 9 9 10 10 10 10 10 11 11 11 11 11 11 12 12 12 12 12
15 15 15 15 15 15 14 14 14 14 13 13 12 12 11 11 11 11 11 10 10 10 10 9 9 9 9 9 9 9 10 10 10 10 10 10 11 11 11 11 11 11 11
15 15 15 15 15 15 14 14 14 13 13 13 12 12 11 11 11 11 10 10 10 9 9 9 9 9 9 9 9 9 10 10 10 10 10 10 10 10 10 10 10 10 10
Wind_Speed
13 14 14 13 12 12 11 10 10 9 7 3 2 4 6 7 6 6 8 9 9 11 9 6 7 7 7 7 7 4 4 2 2 3 2 3 2 2 3 4 5 7 12
16 16 15 15 14 13 11 10 9 9 7 5 4 3 4 4 5 5 5 7 7 9 9 8 7 7 6 6 6 5 4 2 3 4 2 2 4 3 2 2 5 7 8
16 16 16 14 13 13 12 11 9 9 9 8 4 2 1 1 2 4 5 5 7 8 7 6 7 7 7 7 6 5 6 4 2 2 4 4 4 3 4 2 2 5 6
15 14 14 14 13 12 11 10 9 9 9 8 5 4 4 6 7 5 5 5 6 7 8 7 6 6 5 6 5 5 4 5 3 2 2 3 4 3 2 3 2 2 5
15 14 13 12 11 11 11 10 10 9 9 9 7 4 4 5 4 4 6 5 4 4 5 6 5 5 4 5 5 4 4 4 4 4 3 2 2 2 3 3 3 3 2
15 13 12 11 10 10 10 10 10 10 10 9 7 5 3 3 4 5 6 5 4 4 5 5 5 5 4 5 5 5 5 4 4 4 4 3 3 3 4 5 4 3 3
13 12 12 11 11 11 11 10 10 9 10 9 8 6 3 0 2 4 5 5 4 4 5 5 4 4 4 4 4 4 4 4 4 4 4 4 4 3 4 4 3 3 3
13 13 12 10 10 11 10 9 9 9 9 8 7 7 5 3 2 2 3 4 3 3 4 4 4 3 4 4 4 3 4 4 4 5 5 3 4 4 4 4 4 2 2
14 13 12 10 9 9 9 9 8 8 8 8 7 7 7 6 5 5 5 4 4 4 4 4 4 3 3 3 4 3 4 4 4 4 5 4 4 4 4 4 4 5 3
13 13 12 11 9 8 8 8 7 7 7 8 7 6 7 6 6 5 6 5 4 4 3 3 2 2 2 1 2 3 4 5 4 4 5 4 3 4 4 4 4 4 5
12 12 11 10 9 8 8 8 8 8 8 7 7 7 7 6 6 6 5 5 4 3 3 2 1 1 0 1 2 3 5 5 5 4 5 5 4 3 3 3 3 4 4
10 10 10 9 9 8 8 8 8 8 7 7 6 7 6 6 6 6 5 5 5 5 4 3 2 1 1 1 0 2 3 5 5 5 5 4 4 4 3 3 3 3 4
9 8 8 8 8 8 8 8 7 7 7 7 7 8 7 7 7 6 6 6 5 5 4 4 4 4 4 3 2 2 3 3 3 4 4 5 5 4 3 3 3 2 2
8 7 7 7 7 7 8 8 8 7 7 8 8 8 8 7 6 6 6 6 6 5 5 5 6 6 6 5 4 3 1 1 1 2 4 5 6 6 5 4 3 3 2
8 8 7 6 6 7 7 7 8 8 8 8 9 8 8 7 8 8 8 8 8 8 7 7 7 6 5 5 5 4 3 2 1 1 2 3 6 8 6 4 4 4 3
8 9 8 6 5 6 6 7 7 7 7 8 9 9 9 9 9 8 8 9 9 8 8 8 8 8 7 9 8 4 2 2 2 2 2 2 4 6 6 7 6 6 4
7 8 7 5 3 3 4 5 5 6 7 8 8 8 8 9 8 8 8 8 7 7 7 7 6 6 8 12 11 8 3 2 2 3 3 3 3 3 3 3 4 3 3
7 7 7 6 3 2 3 4 5 6 7 7 7 7 8 8 8 8 8 7 6 6 6 6 6 6 10 15 13 9 5 3 2 2 3 4 4 3 4 4 3 1 0
5 4 4 3 2 2 2 4 5 5 6 6 6 6 7 8 8 8 7 6 5 6 6 5 7 8 9 15 14 10 4 4 5 4 4 4 4 3 6 6 5 4 2
5 5 5 4 4 1 2 4 3 3 4 4 4 5 6 7 7 7 7 6 6 6 6 7 7 7 8 14 15 10 4 5 4 4 4 5 4 4 7 6 7 6 3
6 6 5 4 3 0 2 3 1 1 1 4 5 5 5 6 7 7 6 7 7 8 8 7 7 8 9 12 15 12 5 3 4 4 3 3 5 6 6 6 5 5 5
7 6 5 5 4 1 2 1 1 1 2 5 6 6 6 6 6 7 7 7 7 7 7 7 7 7 8 10 12 14 10 6 4 3 2 3 6 8 7 5 6 8 7
6 5 5 5 5 2 1 0 2 1 5 5 5 5 6 6 6 7 7 6 6 6 6 6 7 6 7 9 14 14 12 10 5 4 6 7 9 8 7 9 9 7 6
5 5 5 6 5 4 2 2 1 4 7 6 5 4 5 6 6 6 6 6 6 6 6 6 6 6 6 7 8 7 7 8 7 6 8 10 12 10 9 8 7 6 5
5 5 5 5 4 3 4 4 3 6 7 6 5 4 4 5 5 5 5 5 4 4 4 4 4 5 6 8 10 7 6 5 5 5 6 7 7 8 7 7 7 6 6
4 5 5 4 3 3 4 4 3 6 7 5 4 4 4 3 3 4 3 6 5 7 8 7 5 4 7 10 12 14 15 13 11 9 8 8 7 7 7 7 7 7 6
Wind_Direction
10 11 16 18 21 20 18 16 9 2 357 331 246 214 209 206 201 198 194 192 189 185 178 176 169 162 164 166 155 140 137 135 128 94 34 346 323 261 219 191 182 194 199
5 5 7 11 14 13 9 6 1 351 342 321 280 234 217 216 205 196 182 185 181 179 180 170 166 163 155 157 157 145 140 146 139 132 113 345 329 317 298 191 187 196 196
360 358 1 4 6 6 1 357 352 345 334 323 301 263 204 209 205 204 191 184 176 174 170 164 159 162 161 168 170 161 156 166 175 155 148 164 222 292 320 301 210 197 196
355 354 356 355 356 353 350 348 347 344 337 330 312 255 216 209 207 201 190 183 173 167 162 160 161 168 167 166 175 174 169 159 172 181 188 171 157 170 298 320 317 231 209
348 346 345 342 344 345 346 346 346 347 342 337 325 289 243 225 205 183 173 173 160 163 159 156 159 166 167 167 172 166 172 174 173 174 176 170 168 170 179 263 309 327 268
340 339 337 341 343 344 346 345 347 346 345 345 345 331 269 223 189 182 180 171 158 157 153 148 153 161 162 167 170 169 170 179 180 182 179 170 164 184 185 213 240 269 287
341 340 340 343 345 344 343 342 346 345 346 352 359 357 350 261 183 180 175 164 160 154 156 147 151 156 155 160 159 162 174 179 187 189 189 184 188 174 171 179 209 238 282
344 341 340 341 342 339 339 342 345 346 350 359 2 7 14 34 57 93 126 136 136 130 132 131 137 141 153 155 161 163 182 189 194 196 185 180 196 182 175 172 169 202 282
345 343 342 343 339 336 336 342 350 355 360 5 11 21 27 38 52 66 81 89 95 103 103 115 122 138 156 160 158 164 197 194 193 193 188 186 195 184 181 171 169 171 205
344 347 347 345 341 336 336 349 1 3 7 13 18 29 31 40 51 64 73 78 82 84 86 90 108 125 134 141 157 184 201 185 186 188 180 187 194 187 177 176 179 177 179
339 338 341 343 345 346 353 1 2 8 12 14 19 26 27 33 47 54 60 66 67 71 77 75 75 92 187 209 198 208 195 182 191 193 188 196 187 178 182 172 174 181 176
329 331 338 347 351 355 358 3 7 12 11 13 23 26 26 33 38 39 44 52 52 46 39 35 38 19 354 351 229 238 218 202 195 196 188 198 185 181 181 173 184 187 188
331 334 340 346 353 360 2 7 9 11 15 20 27 29 29 34 33 28 31 39 44 39 36 36 37 36 33 15 327 269 252 232 213 195 186 186 168 177 173 173 176 180 175
334 339 342 346 351 2 10 13 13 13 21 27 29 30 27 29 30 33 37 38 43 48 48 44 44 47 43 29 5 355 319 296 266 210 187 177 172 173 166 160 158 146 131
347 352 357 356 2 12 17 20 21 20 25 32 32 27 26 30 36 40 44 48 51 57 58 59 52 44 45 32 23 18 26 17 53 110 154 180 181 172 163 154 153 137 122
353 357 2 8 19 26 24 26 26 22 28 35 33 32 35 38 39 41 49 55 56 56 59 61 57 48 38 27 27 29 39 32 93 110 126 159 170 170 158 151 153 148 141
345 349 355 6 26 40 42 42 33 32 37 36 33 32 37 39 37 44 48 50 51 54 57 53 51 43 26 28 25 31 50 58 96 134 131 135 138 132 133 150 151 156 155
343 342 347 358 14 44 46 51 44 41 39 35 32 33 38 37 34 39 41 41 44 49 51 46 40 33 25 28 27 30 41 57 66 97 133 140 134 145 161 153 146 146 30
328 326 330 348 22 62 86 77 50 40 41 36 35 35 41 42 40 38 34 31 40 42 43 40 35 31 17 24 30 39 35 53 54 58 83 111 123 146 153 143 135 112 64
331 337 347 9 27 47 125 97 65 46 44 47 52 48 47 50 45 40 37 35 43 43 48 45 36 30 18 20 28 35 42 57 55 46 49 64 83 110 138 142 140 140 141
335 349 3 4 348 282 139 113 85 12 41 68 71 59 55 58 50 43 37 37 41 43 42 41 29 22 16 15 23 30 39 49 61 59 40 29 62 89 112 124 137 151 142
343 353 1 351 340 335 143 135 267 260 91 85 78 61 50 55 54 50 41 36 39 42 33 29 21 12 7 9 14 26 36 50 71 60 32 34 71 80 83 91 110 118 115
346 346 354 353 353 354 140 216 283 146 115 104 93 76 65 55 50 52 47 39 35 39 32 30 23 7 4 5 14 22 32 44 59 55 66 76 75 71 68 75 87 93 99
341 342 357 5 355 345 349 326 338 127 125 122 120 106 87 68 52 48 47 48 38 35 33 29 19 6 3 7 6 9 21 32 47 55 61 66 66 63 59 60 62 66 81
338 348 356 356 350 353 3 7 64 118 121 127 131 127 108 98 77 61 47 46 34 26 30 16 7 9 8 1 15 33 33 37 52 61 60 57 56 58 55 55 55 55 59
348 355 355 358 0 15 16 20 72 123 128 131 141 149 143 127 115 101 64 29 26 22 27 28 24 6 16 27 42 49 51 52 62 69 65 62 59 60 58 59 56 53 54
Height
1536 1533 1530 1528 1526 1523 1522 1521 1520 1520 1520 1521 1521 1522 1523 1524 1525 1527 1529 1531 1533 1536 1538 1540 1542 1543 1545 1547 1549 1551 1552 1553 1554 1555 1556 1556 1556 1557 1557 1558 1558 1559 1560
1536 1533 1529 1527 1525 1523 1521 1520 1518 1518 1517 1517 1517 1518 1519 1520 1522 1523 1525 1527 1529 1531 1534 1536 1538 1540 1542 1544 1546 1547 1548 1550 1551 1552 1553 1554 1555 1554 1555 1555 1555 1556 1557
1538 1534 1530 1527 1525 1522 1520 1518 1516 1515 1514 1513 1513 1513 1515 1516 1518 1519 1520 1522 1524 1527 1529 1531 1534 1536 1538 1540 1542 1544 1545 1546 1547 1549 1550 1550 1550 1551 1552 1552 1553 1554 1554
1539 1535 1531 1527 1524 1522 1520 1516 1514 1511 1510 1509 1509 1509 1509 1510 1511 1513 1515 1517 1519 1522 1525 1526 1529 1532 1534 1536 1538 1540 1541 1542 1543 1544 1546 1547 1547 1549 1549 1550 1550 1551 1552
1541 1536 1532 1529 1525 1522 1518 1515 1511 1508 1506 1505 1504 1504 1504 1505 1506 1508 1510 1512 1514 1517 1519 1522 1524 1527 1530 1532 1534 1535 1536 1537 1538 1540 1541 1542 1543 1545 1546 1546 1547 1548 1549
1541 1536 1533 1529 1524 1521 1517 1513 1510 1507 1504 1502 1500 1499 1499 1499 1501 1502 1504 1507 1509 1511 1513 1517 1520 1522 1525 1527 1529 1531 1533 1533 1534 1535 1536 1538 1539 1540 1542 1543 1543 1545 1546
1541 1536 1532 1528 1523 1520 1517 1513 1509 1506 1503 1500 1498 1497 1496 1496 1497 1498 1500 1502 1505 1507 1509 1512 1515 1518 1520 1523 1525 1527 1529 1530 1531 1532 1532 1534 1535 1537 1538 1539 1540 1541 1542
1541 1536 1532 1527 1523 1520 1517 1513 1509 1506 1502 1500 1497 1496 1495 1494 1495 1496 1498 1499 1501 1503 1506 1508 1511 1513 1516 1518 1521 1523 1525 1527 1528 1529 1530 1531 1532 1533 1534 1535 1537 1537 1538
1542 1536 1531 1527 1524 1521 1517 1514 1510 1506 1503 1500 1498 1496 1495 1494 1494 1495 1496 1497 1499 1501 1503 1506 1507 1510 1513 1516 1518 1520 1522 1524 1525 1526 1527 1528 1529 1530 1531 1532 1533 1534 1534
1543 1537 1532 1528 1525 1521 1518 1514 1511 1507 1504 1502 1500 1498 1497 1496 1496 1496 1496 1497 1499 1500 1502 1504 1506 1509 1511 1514 1516 1518 1520 1522 1523 1524 1525 1526 1527 1527 1528 1528 1529 1530 1531
1545 1540 1535 1530 1527 1523 1519 1516 1512 1509 1507 1504 1503 1501 1500 1499 1498 1498 1498 1499 1500 1501 1502 1504 1506 1508 1511 1512 1514 1516 1518 1520 1521 1522 1523 1524 1525 1525 1526 1526 1527 1527 1527
1548 1543 1538 1533 1529 1525 1521 1518 1515 1512 1510 1508 1506 1504 1503 1502 1501 1501 1501 1501 1502 1503 1504 1505 1507 1509 1510 1512 1513 1515 1517 1518 1520 1521 1522 1523 1524 1524 1524 1524 1525 1525 1525
1550 1545 1541 1537 1532 1528 1525 1521 1518 1516 1513 1511 1509 1508 1506 1505 1505 1504 1504 1504 1505 1505 1506 1507 1508 1509 1510 1511 1513 1514 1516 1518 1519 1520 1521 1522 1523 1523 1523 1523 1523 1523 1523
1552 1548 1544 1540 1536 1533 1529 1526 1523 1520 1517 1515 1513 1511 1510 1509 1508 1507 1507 1507 1507 1507 1507 1508 1508 1509 1510 1511 1512 1513 1515 1516 1517 1519 1520 1521 1522 1522 1522 1522 1522 1522 1522
1554 1551 1547 1544 1540 1537 1533 1530 1527 1524 1521 1519 1516 1514 1513 1512 1511 1510 1509 1508 1508 1508 1508 1508 1508 1509 1509 1510 1511 1512 1513 1514 1516 1518 1519 1520 1521 1522 1522 1522 1522 1522 1522
1556 1553 1550 1547 1544 1541 1537 1534 1531 1528 1526 1523 1521 1519 1517 1515 1514 1513 1511 1510 1510 1509 1509 1508 1508 1508 1508 1509 1509 1510 1511 1512 1514 1515 1517 1519 1520 1521 1521 1522 1522 1522 1522
1559 1556 1553 1550 1547 1544 1541 1538 1535 1533 1530 1527 1525 1523 1521 1519 1517 1516 1514 1513 1512 1511 1510 1509 1508 1508 1507 1507 1508 1508 1509 1510 1511 1513 1515 1517 1519 1520 1521 1522 1522 1522 1522
1560 1558 1555 1552 1549 1547 1544 1541 1539 1536 1533 1531 1529 1526 1524 1522 1520 1519 1517 1516 1515 1513 1512 1510 1509 1509 1507 1507 1506 1506 1507 1508 1509 1511 1513 1515 1517 1518 1520 1521 1522 1522 1523
1562 1559 1557 1554 1551 1549 1547 1544 1542 1539 1537 1534 1532 1530 1527 1525 1523 1521 1519 1518 1517 1515 1514 1512 1511 1510 1508 1507 1506 1506 1506 1507 1508 1509 1511 1513 1515 1517 1518 1520 1521 1522 1522
1562 1560 1558 1555 1553 1551 1549 1547 1544 1542 1540 1537 1535 1533 1530 1528 1525 1523 1522 1520 1519 1517 1516 1514 1512 1511 1509 1507 1506 1506 1506 1506 1507 1508 1509 1511 1513 1514 1516 1518 1520 1521 1522
1563 1561 1559 1556 1554 1553 1551 1549 1547 1545 1543 1541 1538 1536 1533 1530 1528 1526 1525 1523 1521 1520 1517 1516 1514 1512 1510 1508 1507 1506 1506 1506 1506 1507 1508 1510 1511 1513 1515 1517 1519 1520 1521
1563 1561 1559 1557 1556 1554 1552 1550 1549 1547 1545 1544 1541 1539 1536 1534 1532 1529 1527 1526 1524 1522 1520 1518 1515 1513 1511 1509 1508 1507 1507 1507 1507 1507 1508 1509 1511 1512 1514 1516 1518 1519 1520
1564 1562 1560 1558 1557 1555 1553 1551 1550 1549 1547 1546 1544 1541 1539 1537 1535 1533 1531 1529 1527 1525 1522 1520 1517 1515 1514 1512 1510 1509 1508 1508 1508 1509 1509 1510 1511 1513 1514 1516 1518 1519 1520
1565 1564 1562 1560 1558 1556 1554 1553 1551 1550 1549 1547 1546 1544 1542 1540 1538 1536 1534 1532 1530 1527 1525 1523 1520 1518 1516 1514 1513 1512 1511 1511 1510 1511 1511 1512 1514 1515 1516 1517 1518 1519 1521
1566 1565 1563 1561 1559 1557 1555 1554 1552 1551 1550 1549 1548 1546 1545 1543 1542 1540 1538 1535 1533 1531 1529 1526 1524 1522 1519 1518 1516 1515 1514 1514 1514 1514 1515 1515 1516 1517 1518 1519 1520 1521 1521
1567 1565 1564 1562 1560 1558 1556 1555 1553 1552 1551 1550 1549 1548 1547 1546 1544 1543 1540 1539 1536 1534 1532 1530 1527 1525 1524 1522 1520 1519 1518 1518 1518 1518 1518 1519 1519 1520 1521 1521 1522 1522 1523